User: anonymous   Login
Location: Melbourne
(37.8170°S, 144.9670°E)
Time: 23:51:26
(UTC+10:00)
Language:

ADEOS Rocket - Orbit

View from above orbital plane
View from above orbital plane
View from above satellite
View from above satellite

Ground track
Ground track

The orbit data is extracted from the following two-line orbital elements,

1 24279U 96046C   15122.16247139  .00000022  00000-0  69833-4 0  9990
2 24279 098.7019 154.4664 0301267 111.4059 293.7409 13.47023710919630
Epoch (UTC): 02 May 2015 03:53:57
Eccentricity: 0.0301267
inclination: 98.7019°
perigee height: 858 km
apogee height: 1308 km
right ascension of ascending node: 154.4664°
argument of perigee: 111.4059°
revolutions per day: 13.47023710
mean anomaly at epoch: 293.7409°
orbit number at epoch: 91963

The dashed part of the orbit path shows where the satellite is in the earth's shadow,  

DLR